www.pogodaiklimat.ru

Погода и климат >> Архив погоды >> Алжир >> Бордж Моктар


ПОГОДА в Бордж Моктар

  • Прогноз погоды в Бордж Моктар
  • Монитор погоды в Бордж Моктар

АРХИВ ПОГОДЫ в Бордж Моктар

Время (UTC), дата Ветер
(напр.,м/с)
 
Видим.   Явления Облачность Т
(С)
Тd
(С)
f
(%)
Тe
(С)
Тes
(С)
Комфортность P
(гПа)
Po
(гПа)
Тmin
(С)
Tmax
(С)
R
(мм)
R24
(мм)
S
(см)
15 12.01 СВ 9 10 км 6/0
[Ac trans Ci sp]
+23.4 -4.2 16 +22 +22 комфорт 1016.7 1017.0
18 12.01 С 7 10 км 6/0
[Ac trans Ci sp]
+20.5 -11.0 11 +19 +19 1017.6 1018.0 +23.8
06 13.01 С 4 10 км ясно +5.0 -10.0 33 +2 +2 1020.1 1020.0 +5.0
09 13.01 С 5 10 км ясно +9.0 -8.6 28 +6 +9 1021.5 1022.0
12 13.01 СВ 9 10 км ясно +19.8 -3.3 21 +19 +20 1019.1 1019.0
15 13.01 СВ 6 10 км ясно +23.5 -4.4 15 +22 +24 комфорт 1017.0 1017.0
18 13.01 С 5 10 км ясно +19.5 -5.0 19 +19 +19 1018.4 1018.0 +24.1
06 14.01 СВ 4 10 км ясно +5.4 -8.7 35 +2 +2 1019.4 1019.0 +4.5
09 14.01 СВ 5 10 км ясно +10.4 -8.4 26 +8 +11 1020.1 1020.0
12 14.01 В 6 10 км ясно +21.2 -6.8 15 +20 +25 1018.8 1019.0
15 14.01 СВ 3 10 км ясно +23.5 +20 +24 1017.1 1017.0
18 14.01 СВ 4 10 км ясно +20.1 -9.6 13 +20 +20 1018.0 1018.0 +24.0
06 15.01 В 3 10 км ясно +4.7 -11.8 29 +2 +2 1017.5 1018.0 +4.6
09 15.01 В 5 10 км ясно +11.4 -16.8 12 +10 +12 1017.8 1018.0
12 15.01 Ю 3 10 км ясно +23.6 -10.1 10 +21 +31 комфорт 1017.1 1017.0
15 15.01 штиль 0 10 км ясно +24.4 -9.3 10 +22 +29 комфорт 1015.3 1015.0
18 15.01 С 4 10 км ясно +22.0 -11.8 9 +20 +20 1016.3 1016.0 +24.4
06 16.01 С 5 10 км ясно +7.0 -8.3 33 +4 +4 1016.0 1016.0 +7.0
09 16.01 СВ 5 10 км ясно +11.0 -10.4 21 +9 +12 1017.4 1017.0
12 16.01 штиль 0 10 км ясно +23.1 -11.5 9 +20 +37 опасность
простуды
1015.8 1016.0
15 16.01 СЗ 5 10 км 5/0
[Ac trans Ci sp]
+25.4 -9.7 9 +22 +24 комфорт 1013.4 1013.0
18 16.01 СЗ 4 10 км 3/0
[Ci sp]
+22.0 -10.3 11 +20 +20 1014.1 1014.0 +25.6
06 17.01 С 3 10 км 1/0
[Ci sp]
+8.4 -11.4 23 +7 +7 1015.1 1015.0 +8.3
09 17.01 С 3 10 км 1/0
[Ci sp]
+12.7 -13.0 15 +12 +16 1016.0 1016.0
12 17.01 СВ 4 10 км 1/0
[Ci sp]
+23.1 -9.1 11 +21 +29 комфорт 1014.3 1014.0
15 17.01 штиль 0 10 км 4/0
[Ci sp]
+27.5 -7.8 9 +24 +31 комфорт 1011.9 1012.0
18 17.01 С 3 10 км 4/0
[Ci sp]
+23.6 -10.9 9 +21 +21 комфорт 1012.3 1012.0 +28.5
06 18.01 СЗ 3 10 км 6/0
[Ac trans Ci sp]
+14.0 -8.3 20 +13 +13 1011.3 1011.0 +14.0
09 18.01 СВ 3 10 км 9/4 1500 м
[Sc Ac trans Ci sp]
+16.0 -6.0 22 +16 +17 1012.6 1013.0
12 18.01 СЗ 4 10 км 9/4 1500 м
[Sc Ac trans Ci sp]
+22.6 -2.0 19 +21 +24 комфорт 1012.3 1012.0
15 18.01 З 7 10 км 9/4 1500 м
[Sc Ac trans Ci sp]
+24.7 -2.3 17 +23 +23 комфорт 1010.3 1010.0
18 18.01 СЗ 5 10 км 8/4 1500 м
[Sc Ac trans Ci sp]
+22.4 -12.0 9 +20 +20 1011.7 1012.0 +25.0
06 19.01 СЗ 7 10 км 6/4 1380 м
[Cu med, cong Ac trans]
+11.3 -15.4 14 +9 +9 1015.2 1015.0 +11.0
09 19.01 СЗ 9 10 км 4/0
[Ac trans Ci sp]
+14.3 -14.2 13 +12 +13 1017.7 1018.0
12 19.01 СЗ 13 2000 м пыльный позёмок 3/0
[Ci sp]
+20.8 -13.2 9 +19 +19 1017.7 1018.0

 

Местоположение метеостанции Бордж Моктар (Алжир): широта 21.33 долгота 0.95 высота над уровнем моря 399 м.

В архиве по умолчанию представлена погода в Бордж Моктар за последнюю неделю. Архивные данные за месяц целиком и за предыдущие месяцы, начиная с января 2011 года, Вы можете получить, выбрав интересующий диапазон дат из раскрывающегося списка и нажав кнопку "Ввод!".


*Определитесь, кто Вы:
робот инопланетянин человек

Внимание! Время в таблицах - всемирное. Для получения местного времени необходимо прибавить поправку, которая равна 1 ч.

Смотрите также архив погоды в соседних городах и на ближайших метеорологических станциях:

Погода в Ин-Зиза (Алжир) (288 км)
Погода в Abankor (Алжир) (414 км)
Погода в Анебарака (Алжир) (440 км)
Погода в Таманрассете (Алжир) (490 км)
Погода в Араке (Алжир) (523 км)
Погода в Assekrem (Алжир) (528 км)
Погода в Moulay Lachen (Алжир) (537 км)
Погода в Ин-Геззаме (Алжир) (537 км)
Погода в Ин-Геззам аэропорту (Алжир) (537 км)
Погода в Mertouek (Алжир) (572 км)

Пояснения к столбцам:

Ветер - указаны скорость ветра в м/с - средняя за 10 мин, порывы в срок и между сроками (в фигурных скобках) и направление, откуда дует ветер: С - северный, СВ - северо-восточный, В - восточный, ЮВ - юго-восточный, Ю - южный, ЮЗ - юго-западный, З - западный, СЗ - северо-западный.
Видимость - горизонтальная дальность видимости в метрах или километрах. При видимости от 1 до 10 км при отсутствии осадков обычно наблюдается дымка, при ухудшении видимости до 1 км и менее - туман. В сухую погоду видимость может ухудшаться дымом, пылью или мглою.
Явления - указаны атмосферные явления, наблюдавшиеся в срок или в последний час перед сроком; фигурными скобками обозначены явления, наблюдавшиеся между сроками (за 1-3 часа до срока); квадратными скобками обозначены град или гололедные отложения с указанием их диаметра в мм.
Облачность - указаны через наклонную черту общая и нижняя облачность в баллах и высота нижней границы облаков в метрах; квадратными скобками обозначены формы облаков: Ci - перистые, Cs - перисто-слоистые, Cc - перисто-кучевые, Ac - высококучевые, As - высокослоистые, Sc - слоисто-кучевые, Ns - слоисто-дождевые, Cu - кучевые, Cb - кучево-дождевые. Подробнее классификацию облаков см. в Атласе облаков (PDF).
T - Температура воздуха - температура, измеренная на высоте 2 м над землей.
Td - Температура точки росы - температура, при понижении до которой содержащийся в воздухе водяной пар достигнет насыщения.
f - Относительная влажность воздуха - влажноcть воздуха, измеренная на высоте 2 м над землей.
Te - Эффективная температура - температура, которую ощущает одетый по сезону человек в тени. Характеристика душности погоды. При расчете учитывается влияние влажности воздуха и скорости ветра на теплоощущения человека.
Tes - Эффективная температура на солнце - температура, которую ощущает человек, с поправкой на солнечный нагрев. Характеристика знойности погоды. Зависит от высоты солнца над горизонтом, облачности и скорости ветра. Ночью, в пасмурную погоду, а также при ветре 12 м/с и более поправка равна нулю.
P - Атмосферное давление - приведенное к уровню моря атмосферное давление.
Po - Атмосферное давление - измеренное на уровне метеостанции атмосферное давление.
Tmin - Минимальная температура - минимум температуры воздуха на высоте 2 м над землей.
Tmax - Максимальная температура - максимум температуры воздуха на высоте 2 м над землей.
R - Количество осадков - Количество выпавших осадков за период времени, мм. При наведении курсора мыши на число - период времени, за который выпало указанное количество осадков.
R24 - Количество осадков - Количество выпавших осадков за 24 часа, мм.
S - Снежный покров - Высота снежного покрова, см. При наведении курсора мыши на число - состояние снежного покрова и степень покрытия местности в баллах.